Regional Weather Roundup
Issued by NWS

Home | Current Version | Previous Version | Graphics & Text | Print | Product List | Glossary On
Versions: 1 2 3 4 5 6 7 8 9 10 11 12 13 14 15 16 17 18 19 20 21 22 23 24 25 26 27 28 29 30 31 32 33 34 35 36 37 38 39 40 41 42 43 44 45 46 47 48 49 50
000
ASUS43 KMPX 190810
RWRMN
WEATHER ROUNDUP FOR MINNESOTA
NATIONAL WEATHER SERVICE TWIN CITIES/CHANHASSEN MN
200 AM CST SUN NOV 19 2017


NOTE: "FAIR" INDICATES FEW OR NO CLOUDS BELOW 12,000 FEET WITH NO
SIGNIFICANT WEATHER AND/OR OBSTRUCTIONS TO VISIBILITY. N/A MEANS
CURRENT SKY AND/OR WEATHER CONDITIONS ARE NOT AVAILABLE.

MNZ060>063-068>070-190900-
   Twin Cities Metro

CITY           SKY/WX    TMP DP  RH WIND       PRES   REMARKS
TWIN CITIES    CLEAR     20  11  68 NW10      30.07R WCI   9
ST PAUL        CLEAR     19  10  68 NW10      30.09R WCI   7
CRYSTAL        CLEAR     19   8  62 W8        30.06R WCI   9
BLAINE         CLEAR     19  10  68 W9        30.05S WCI   9
LAKEVILLE      CLEAR     16  12  86 W6        30.06R WCI   7
EDEN PRAIRIE   CLEAR     20  11  68 W8        30.06R WCI  10
SOUTH ST PAUL  CLEAR     21  10  64 NW8       30.07R WCI  11
LAKE ELMO      FAIR      19  12  73 NW10      30.06R WCI   8
$$
MNZ001>005-007-008-013>017-022>024-027-028-190900-
   Northwest Minnesota

CITY           SKY/WX    TMP DP  RH WIND       PRES   REMARKS
BEMIDJI        CLEAR     10   6  84 W7        29.97F WCI  -2
HALLOCK        CLOUDY     3  -2  78 S8        29.99F WCI -10
ROSEAU         CLEAR      9   3  78 SW5       29.96F WCI   0
WARROAD        CLOUDY     7   1  78 SW6       29.96S WCI  -3
THIEF RVR FALL CLEAR      9   5  84 W9        30.00F WCI  -4
CROOKSTON      CLEAR     10   7  85 SW5       30.03F WCI   2
FOSSTON        CLEAR      7   3  85 SW5       30.00F WCI  -2
DETROIT LAKES  CLEAR     14  10  85 W3        30.02F
MOORHEAD       CLEAR     10   7  85 CALM      30.06F
PARK RAPIDS    CLEAR      8   3  80 W6        30.00S WCI  -2
MAHNOMEN       FAIR       8   5  86 S7        30.02S WCI  -3
$$
MNZ006-009>011-018-025>026-190900-
   North Central Minnesota

CITY           SKY/WX    TMP DP  RH WIND       PRES   REMARKS
BAUDETTE       CLEAR      6   3  87 W5        29.94F WCI  -3
FLAG ISLAND    CLEAR      7   3  85 W12       29.92F WCI  -9
INTL FALLS     CLEAR      9   4  80 W9        29.93S WCI  -4
WASKISH        CLEAR     12   7  79 W9        29.97S WCI   0
BIG FORK       CLEAR      9   5  85 W5        29.95S WCI   0
LONGVILLE      CLEAR     12   7  79 W6        29.99S WCI   3
GRAND RAPIDS   CLEAR     11   7  84 NW8G18    29.98S WCI  -1
CRANE LAKE     PTCLDY    12   7  79 CALM      29.94R
ORR            MOCLDY    10   3  72 W5        29.90S WCI   2
COOK           PTCLDY    10   7  85 W9        29.93R WCI  -2
WALKER         FAIR      10   6  82 W6        29.99S WCI   1
$$
MNZ012-019>021-037-190900-
   Northeast Minnesota

CITY           SKY/WX    TMP DP  RH WIND       PRES   REMARKS
DULUTH         FLURRIES  13   7  77 NW13      29.93R WCI  -2
ELY            CLOUDY    12   7  79 W8        29.89S WCI   1
HIBBING        PTCLDY    10   5  80 W7        29.94S WCI  -1
EVELETH        PTCLDY    12   5  73 W7        29.95R WCI   2
DULUTH HARBOR  CLEAR     19  12  73 W18       30.00R WCI   4
TWO HARBORS    FLURRIES  18   9  68 W7G20     29.91R WCI   8
SILVER BAY     CLOUDY    16   7  67 W7G16     29.90R WCI   6
GRAND MARAIS     N/A     19  10  68 VRB6      29.91R WCI  11
G MARAIS ARPRT FLURRIES  10   3  72 NW7       29.80S WCI   0
$$
MNZ029>031-032-039>041-046>048-054>057-064-190900-
   West Central Minnesota

CITY           SKY/WX    TMP DP  RH WIND       PRES   REMARKS
FERGUS FALLS   CLEAR     10   7  85 S3        30.09F
WHEATON        CLEAR     12   7  79 CALM      30.09F
MORRIS         CLEAR     12  10  92 W3        30.07F
ALEXANDRIA     CLEAR     15  10  80 W10       30.06S WCI   2
ELBOW LAKE     FAIR      13   8  80 CALM      30.06F
WADENA         CLEAR     10   9  92 W7        30.03S WCI   0
GLENWOOD       CLEAR     14  10  85 W8        30.07R WCI   3
APPLETON       CLEAR     16  10  79 SW6       30.10F WCI   7
BENSON         CLEAR     12   9  85 CALM      30.11R
ORTONVILLE     CLEAR     16  10  79 MISG      30.09F
MADISON        CLEAR     19  14  79 W6        30.12S WCI  11
WILLMAR        FAIR      18  12  79 W8        30.10S WCI   7
$$
MNZ033>034-036-042>043-049>051-058-059-190900-
   Central Minnesota

CITY           SKY/WX    TMP DP  RH WIND       PRES   REMARKS
ST CLOUD       CLEAR     17  10  74 W9        30.06R WCI   6
SAUK CENTRE    FAIR      15  10  80 W9        30.06S WCI   4
PAYNESVILLE    CLEAR     15  12  88 W6        30.08R WCI   6
AITKIN         CLEAR     12   7  79 W5        29.99S WCI   4
PINE RIVER     CLEAR     10   7  85 CALM      30.04R
BRAINERD       CLEAR     16   7  67 NW9       30.02R WCI   4
STAPLES        CLEAR     10   7  85 W7        30.03S WCI   0
LONG PRAIRIE   FAIR      16  10  79 W7        30.05R WCI   6
LITTLE FALLS   CLEAR     16   5  62 W3        30.06R
LITCHFIELD     CLEAR     19  12  73 W9        30.09R WCI   9
BUFFALO        CLEAR     19  11  71 W8        30.08S WCI   8
MAPLE LAKE     CLEAR     18  13  79 W5        30.08R WCI  11
HUTCHINSON     CLOUDY    17  13  84 W9        30.10R WCI   5
$$
MNZ037-044-045-052-053-190900-
   East Central Minnesota

CITY           SKY/WX    TMP DP  RH WIND       PRES   REMARKS
PRINCETON      CLEAR     16  10  79 W6        30.05R WCI   7
MORA           CLEAR     16  10  79 W6        30.05R WCI   7
CAMBRIDGE      CLEAR     18   9  68 W3        30.05S
RUSH CITY      CLEAR     16  10  79 W5        30.04R WCI   9
MOOSE LAKE     CLEAR     16   9  73 NW6       29.99R WCI   7
HINCKLEY       FAIR      18  10  73 W5        30.02R WCI  11
CLOQUET        CLEAR     14   7  73 W9        29.96R WCI   2
MCGREGOR       CLEAR     14  10  85 W5        29.99S WCI   6
$$
MNZ071>073-080-081-089-090-097-098-190900-
   Southwest Minnesota

CITY           SKY/WX    TMP DP  RH WIND       PRES   REMARKS
MONTEVIDEO     CLEAR     16  10  79 W3        30.11S
GRANITE FALLS  CLEAR     15  12  85 SW7       30.14R WCI   6
CANBY          CLEAR     22  17  78 NW6       30.12S WCI  15
MARSHALL       CLEAR     18  13  80 W7        30.13R WCI   9
REDWOOD FALLS  CLEAR     18  10  71 W10       30.12R WCI   6
OLIVIA         CLEAR     18  12  79 W6        30.11R WCI   9
PIPESTONE      CLEAR     19  14  79 W8        30.12R WCI   9
WINDOM           N/A     18   5  57 W8        30.11R WCI   7
WORTHINGTON    CLEAR     15  12  88 W9        30.12S WCI   3
JACKSON        CLEAR     19  12  73 CALM      30.11S
SLAYTON        CLEAR     20  15  78 W9        30.11S WCI  10
$$
MNZ065>067-074>077-082>085-091>093-190900-
   South Central Minnesota

CITY           SKY/WX    TMP DP  RH WIND       PRES   REMARKS
MANKATO        CLEAR     18  11  74 NW8       30.11R WCI   8
NEW ULM        CLEAR     16  10  79 CALM      30.11R
ST JAMES       CLEAR     18  12  79 W8        30.13R WCI   7
FAIRMONT       CLEAR     19  12  74 NW10      30.13R WCI   7
GLENCOE        CLEAR     19  13  78 W9        30.08R WCI   8
FARIBAULT      CLEAR     18  12  79 W13       30.07R WCI   4
OWATONNA       CLEAR     18  12  79 W13       30.06R WCI   4
WASECA         CLEAR     19  12  73 W9        30.09S WCI   9
ALBERT LEA     CLEAR     19  10  68 NW9       30.07R WCI   9
$$
MNZ078>079-086>088-094>096-190900-
   Southeast Minnesota

CITY           SKY/WX    TMP DP  RH WIND       PRES   REMARKS
ROCHESTER      PTCLDY    19  13  77 NW20      30.02R WCI   3
RED WING       CLEAR     19   9  63 NW5       30.05R WCI  13
STANTON        CLEAR     20  14  77 W8        30.06R WCI  10
DODGE CENTER   CLOUDY    18  12  79 W12G18    30.04R WCI   5
WINONA         MOCLDY    23  14  68 NW14      30.05R WCI  11
AUSTIN         CLOUDY    19  12  73 NW12G17   30.06R WCI   7
PRESTON        PTCLDY    19  13  76 NW16      30.02R WCI   5
$$
ABBREVIATIONS USED IN REMARKS
   TC - TEMPERATURES IN CELSIUS
  WCI - WIND CHILL INDEX
   HX - HEAT INDEX
  VSB - VISIBILITY
$$




USA.gov is the U.S. government's official web portal to all federal, state and local government web resources and services.